Погода в Рыбном

Россия / Саратовская область     51°59′13″N   47°14′41″E
темп.,
°C
ветер,
м/с
пор.,
м/с
влажн.,
%
обл.,
%
осадки,
мм/ч
давл.,
гПа
погр.,
м
13 мая, чт
чт1301:00+14св22871 0.0 102117
04:00+13всв37922 0.3 1019120
07:00+14в51087100 3.8 1019329
10:00+19вюв7126959 4.3 1018700
13:00+23юв91252100 0.0 10181584
16:00+25ююв612485 0.2 10181924
19:00+22ююв3564100 0.0 101784
22:00+18юв22780 0.7 101812
14 мая, пт
пт1401:00+17вюв128314 0.0 101911
04:00+16всв1284100 0.0 102011
07:00+17в368274 0.0 1020173
10:00+23ююв6104296 0.0 1020568
13:00+26ю693892 0.0 10201012
16:00+28ю69380 0.0 10201368
19:00+24ююв410495 0.0 1019218
22:00+19вюв335824 0.0 102027
15 мая, сб
сб1501:00+17вюв3356100 0.0 102023
04:00+16вюв22547 0.0 102012
07:00+17вюв23555 0.0 102198
10:00+24ююв58365 0.0 1020477
13:00+28ююв710265 0.0 10201426
16:00+29ююв69295 0.0 10192366
19:00+25юв384645 0.0 1018157
22:00+20юв22486 0.0 101817
16 мая, вс
вс1601:00+18юв225831 0.0 101815
04:00+16вюв22595 0.0 101811
07:00+18вюв22615 0.0 101982
10:00+25ююв47405 0.0 1018569
13:00+29ю58295 0.0 10181838
16:00+30ю572787 0.0 10173322
19:00+27ююв2242100 0.0 101614
22:00+23в2243100 0.0 101611
17 мая, пн
пн1701:00+21в114859 0.0 101611
04:00+18всв225877 0.0 101714
07:00+20в34638 0.0 1018115
10:00+26вюв464286 0.0 1017430
13:00+30юв572418 0.0 10173165
16:00+30юв56235 0.0 10163512
19:00+27ююв22405 0.0 101633
22:00+21вюв12425 0.0 101711